Time,TemperatureF,DewpointF,PressureIn,WindDirection,WindDirectionDegrees,WindSpeedMPH,WindSpeedGustMPH,Humidity,HourlyPrecipIn,Conditions,Clouds,dailyrainin,SoftwareType,DateUTC
2013-03-19 00:00:00,30.5,25.1,30.22,ESE,111,8.0,10.0,80,0.00,,,0.01,Wunderground v.1.15,2013-03-19 04:00:00,
2013-03-19 00:01:00,30.5,25.1,30.22,SE,125,7.0,10.0,80,0.00,,,0.00,Wunderground v.1.15,2013-03-19 04:01:00,
2013-03-19 00:02:00,30.5,25.1,30.22,SE,134,3.0,10.0,80,0.00,,,0.00,Wunderground v.1.15,2013-03-19 04:02:00,
2013-03-19 00:05:00,30.4,25.0,30.22,ESE,122,7.0,10.0,80,0.00,,,0.00,Wunderground v.1.15,2013-03-19 04:05:00,
2013-03-19 00:11:00,30.4,25.3,30.21,ESE,117,5.0,5.0,81,0.00,,,0.00,Wunderground v.1.15,2013-03-19 04:11:00,
2013-03-19 00:17:00,30.3,25.2,30.21,ESE,123,8.0,9.0,81,0.00,,,0.00,Wunderground v.1.15,2013-03-19 04:17:00,
2013-03-19 00:22:00,30.2,25.1,30.20,ESE,102,7.0,7.0,81,0.00,,,0.00,Wunderground v.1.15,2013-03-19 04:22:00,
2013-03-19 00:28:00,30.1,25.0,30.20,ESE,113,9.0,9.0,81,0.00,,,0.00,Wunderground v.1.15,2013-03-19 04:28:00,
2013-03-19 00:33:00,30.1,25.0,30.19,ESE,117,4.0,11.0,81,0.00,,,0.00,Wunderground v.1.15,2013-03-19 04:33:00,
2013-03-19 00:39:00,30.1,25.3,30.19,ESE,103,9.0,11.0,82,0.00,,,0.00,Wunderground v.1.15,2013-03-19 04:39:00,
2013-03-19 00:44:00,30.2,25.4,30.18,SE,125,6.0,10.0,82,0.00,,,0.00,Wunderground v.1.15,2013-03-19 04:44:00,
2013-03-19 00:49:00,30.2,25.4,30.17,ESE,106,8.0,15.0,82,0.00,,,0.00,Wunderground v.1.15,2013-03-19 04:49:00,
2013-03-19 00:54:00,30.1,25.3,30.17,SE,130,3.0,9.0,82,0.00,,,0.00,Wunderground v.1.15,2013-03-19 04:54:00,
2013-03-19 00:59:00,30.1,25.6,30.17,ESE,115,10.0,10.0,83,0.00,,,0.00,Wunderground v.1.15,2013-03-19 04:59:00,
2013-03-19 01:05:00,30.1,25.6,30.17,ESE,107,9.0,14.0,83,0.00,,,0.00,Wunderground v.1.15,2013-03-19 05:05:00,
2013-03-19 01:12:00,30.1,25.6,30.16,ESE,122,12.0,12.0,83,0.00,,,0.00,Wunderground v.1.15,2013-03-19 05:12:00,
2013-03-19 01:18:00,30.1,25.6,30.15,East,101,13.0,13.0,83,0.00,,,0.00,Wunderground v.1.15,2013-03-19 05:18:00,
2013-03-19 01:23:00,30.1,25.6,30.14,East,101,8.0,10.0,83,0.00,,,0.00,Wunderground v.1.15,2013-03-19 05:23:00,
2013-03-19 01:29:00,30.1,25.6,30.14,East,101,6.0,10.0,83,0.00,,,0.00,Wunderground v.1.15,2013-03-19 05:29:00,
2013-03-19 01:35:00,30.2,25.9,30.13,ESE,119,10.0,15.0,84,0.00,,,0.00,Wunderground v.1.15,2013-03-19 05:35:00,
2013-03-19 01:40:00,30.2,25.9,30.13,ESE,111,10.0,10.0,84,0.00,,,0.00,Wunderground v.1.15,2013-03-19 05:40:00,
2013-03-19 01:45:00,30.3,26.0,30.13,ESE,102,12.0,13.0,84,0.00,,,0.00,Wunderground v.1.15,2013-03-19 05:45:00,
2013-03-19 01:50:00,30.3,26.0,30.12,East,101,10.0,10.0,84,0.00,,,0.00,Wunderground v.1.15,2013-03-19 05:50:00,
2013-03-19 01:56:00,30.4,26.1,30.12,ESE,107,5.0,15.0,84,0.00,,,0.00,Wunderground v.1.15,2013-03-19 05:56:00,
2013-03-19 02:01:00,30.5,26.2,30.11,ESE,111,7.0,9.0,84,0.00,,,0.00,Wunderground v.1.15,2013-03-19 06:01:00,
2013-03-19 02:06:00,30.6,26.6,30.11,ESE,118,11.0,16.0,85,0.00,,,0.00,Wunderground v.1.15,2013-03-19 06:06:00,
2013-03-19 02:11:00,30.8,26.8,30.10,East,96,11.0,17.0,85,0.00,,,0.00,Wunderground v.1.15,2013-03-19 06:11:00,
2013-03-19 02:16:00,30.9,26.9,30.10,ESE,111,8.0,17.0,85,0.00,,,0.00,Wunderground v.1.15,2013-03-19 06:16:00,
2013-03-19 02:21:00,31.0,27.0,30.09,SE,138,4.0,9.0,85,0.00,,,0.00,Wunderground v.1.15,2013-03-19 06:21:00,
2013-03-19 02:26:00,31.1,27.1,30.09,SE,126,8.0,16.0,85,0.00,,,0.00,Wunderground v.1.15,2013-03-19 06:26:00,
2013-03-19 02:31:00,31.1,27.1,30.09,SE,130,9.0,15.0,85,0.00,,,0.00,Wunderground v.1.15,2013-03-19 06:31:00,
2013-03-19 02:36:00,31.0,27.0,30.09,ESE,111,18.0,18.0,85,0.00,,,0.00,Wunderground v.1.15,2013-03-19 06:36:00,
2013-03-19 02:42:00,31.0,27.0,30.08,SE,128,9.0,18.0,85,0.00,,,0.00,Wunderground v.1.15,2013-03-19 06:42:00,
2013-03-19 02:47:00,31.1,27.1,30.08,East,87,11.0,20.0,85,0.00,,,0.00,Wunderground v.1.15,2013-03-19 06:47:00,
2013-03-19 02:52:00,31.2,27.2,30.08,ESE,121,15.0,20.0,85,0.00,,,0.00,Wunderground v.1.15,2013-03-19 06:52:00,
2013-03-19 02:57:00,31.1,27.1,30.08,SE,126,10.0,20.0,85,0.00,,,0.00,Wunderground v.1.15,2013-03-19 06:57:00,
2013-03-19 03:02:00,31.1,27.1,30.08,SE,126,7.0,16.0,85,0.00,,,0.00,Wunderground v.1.15,2013-03-19 07:02:00,
2013-03-19 03:07:00,31.0,27.0,30.07,SE,130,5.0,16.0,85,0.00,,,0.00,Wunderground v.1.15,2013-03-19 07:07:00,
2013-03-19 03:12:00,31.0,27.0,30.07,SE,130,8.0,13.0,85,0.00,,,0.00,Wunderground v.1.15,2013-03-19 07:12:00,
2013-03-19 03:17:00,31.0,27.0,30.06,ESE,117,11.0,14.0,85,0.00,,,0.00,Wunderground v.1.15,2013-03-19 07:17:00,
2013-03-19 03:22:00,31.0,27.0,30.06,ESE,117,12.0,14.0,85,0.00,,,0.00,Wunderground v.1.15,2013-03-19 07:22:00,
2013-03-19 03:27:00,31.1,27.1,30.06,ESE,112,11.0,16.0,85,0.00,,,0.00,Wunderground v.1.15,2013-03-19 07:27:00,
2013-03-19 03:32:00,31.1,27.1,30.06,SSE,149,14.0,19.0,85,0.00,,,0.00,Wunderground v.1.15,2013-03-19 07:32:00,
2013-03-19 03:37:00,31.2,27.5,30.06,SE,124,9.0,20.0,86,0.00,,,0.00,Wunderground v.1.15,2013-03-19 07:37:00,
2013-03-19 03:42:00,31.2,27.5,30.06,ESE,102,12.0,15.0,86,0.00,,,0.00,Wunderground v.1.15,2013-03-19 07:42:00,
2013-03-19 03:47:00,31.2,27.5,30.06,ESE,106,12.0,15.0,86,0.00,,,0.00,Wunderground v.1.15,2013-03-19 07:47:00,
2013-03-19 03:52:00,31.2,27.5,30.06,ESE,104,10.0,13.0,86,0.00,,,0.00,Wunderground v.1.15,2013-03-19 07:52:00,
2013-03-19 03:57:00,31.3,27.6,30.06,East,92,8.0,15.0,86,0.00,,,0.00,Wunderground v.1.15,2013-03-19 07:57:00,
2013-03-19 04:02:00,31.5,27.8,30.06,ESE,114,13.0,15.0,86,0.00,,,0.00,Wunderground v.1.15,2013-03-19 08:02:00,
2013-03-19 04:07:00,31.6,27.9,30.06,SE,128,9.0,15.0,86,0.00,,,0.00,Wunderground v.1.15,2013-03-19 08:07:00,
2013-03-19 04:12:00,31.6,27.9,30.05,ESE,115,11.0,16.0,86,0.00,,,0.00,Wunderground v.1.15,2013-03-19 08:12:00,
2013-03-19 04:17:00,31.6,27.9,30.05,ESE,105,7.0,17.0,86,0.00,,,0.00,Wunderground v.1.15,2013-03-19 08:17:00,
2013-03-19 04:22:00,31.6,27.9,30.05,ESE,119,9.0,16.0,86,0.00,,,0.00,Wunderground v.1.15,2013-03-19 08:22:00,
2013-03-19 04:27:00,31.6,27.9,30.04,East,83,11.0,21.0,86,0.00,,,0.00,Wunderground v.1.15,2013-03-19 08:27:00,
2013-03-19 04:32:00,31.6,27.9,30.04,ESE,105,8.0,17.0,86,0.00,,,0.00,Wunderground v.1.15,2013-03-19 08:32:00,
2013-03-19 04:37:00,31.6,27.9,30.03,ESE,105,10.0,17.0,86,0.00,,,0.00,Wunderground v.1.15,2013-03-19 08:37:00,
2013-03-19 04:42:00,31.7,28.0,30.03,ESE,115,12.0,18.0,86,0.00,,,0.00,Wunderground v.1.15,2013-03-19 08:42:00,
2013-03-19 04:48:00,31.7,28.0,30.03,ESE,123,13.0,18.0,86,0.00,,,0.00,Wunderground v.1.15,2013-03-19 08:48:00,
2013-03-19 04:53:00,31.8,28.1,30.02,East,92,10.0,17.0,86,0.00,,,0.00,Wunderground v.1.15,2013-03-19 08:53:00,
2013-03-19 04:58:00,31.8,28.1,30.02,East,94,21.0,22.0,86,0.00,,,0.00,Wunderground v.1.15,2013-03-19 08:58:00,
2013-03-19 05:03:00,31.8,28.1,30.02,East,101,16.0,23.0,86,0.00,,,0.00,Wunderground v.1.15,2013-03-19 09:03:00,
2013-03-19 05:08:00,31.8,28.1,30.02,ESE,104,9.0,23.0,86,0.00,,,0.00,Wunderground v.1.15,2013-03-19 09:08:00,
2013-03-19 05:13:00,31.8,28.1,30.02,ESE,123,17.0,20.0,86,0.00,,,0.00,Wunderground v.1.15,2013-03-19 09:13:00,
2013-03-19 05:18:00,31.7,28.0,30.02,ESE,118,10.0,22.0,86,0.00,,,0.00,Wunderground v.1.15,2013-03-19 09:18:00,
2013-03-19 05:23:00,31.7,28.0,30.03,East,98,14.0,16.0,86,0.00,,,0.00,Wunderground v.1.15,2013-03-19 09:23:00,
2013-03-19 05:28:00,31.7,28.0,30.03,East,101,14.0,23.0,86,0.00,,,0.00,Wunderground v.1.15,2013-03-19 09:28:00,
2013-03-19 05:33:00,31.6,27.9,30.03,ESE,121,12.0,18.0,86,0.00,,,0.00,Wunderground v.1.15,2013-03-19 09:33:00,
2013-03-19 05:38:00,31.6,27.9,30.03,East,100,18.0,22.0,86,0.00,,,0.00,Wunderground v.1.15,2013-03-19 09:38:00,
2013-03-19 05:43:00,31.6,27.9,30.02,ESE,103,20.0,20.0,86,0.00,,,0.00,Wunderground v.1.15,2013-03-19 09:43:00,
2013-03-19 05:48:00,31.5,27.8,30.02,ESE,106,11.0,23.0,86,0.00,,,0.00,Wunderground v.1.15,2013-03-19 09:48:00,
2013-03-19 05:53:00,31.5,27.8,30.02,ESE,117,8.0,15.0,86,0.00,,,0.00,Wunderground v.1.15,2013-03-19 09:53:00,
2013-03-19 05:58:00,31.6,27.9,30.02,East,88,14.0,17.0,86,0.00,,,0.00,Wunderground v.1.15,2013-03-19 09:58:00,
2013-03-19 06:03:00,31.6,27.9,30.02,ESE,109,15.0,18.0,86,0.00,,,0.00,Wunderground v.1.15,2013-03-19 10:03:00,
2013-03-19 06:08:00,31.7,28.0,30.02,ESE,102,10.0,18.0,86,0.00,,,0.00,Wunderground v.1.15,2013-03-19 10:08:00,
2013-03-19 06:13:00,31.7,28.0,30.02,ESE,113,17.0,17.0,86,0.00,,,0.00,Wunderground v.1.15,2013-03-19 10:13:00,
2013-03-19 06:18:00,31.7,28.0,30.02,East,80,16.0,21.0,86,0.00,,,0.00,Wunderground v.1.15,2013-03-19 10:18:00,
2013-03-19 06:23:00,31.7,28.0,30.01,ENE,76,11.0,19.0,86,0.00,,,0.00,Wunderground v.1.15,2013-03-19 10:23:00,
2013-03-19 06:28:00,31.8,28.1,30.00,East,99,9.0,19.0,86,0.00,,,0.00,Wunderground v.1.15,2013-03-19 10:28:00,
2013-03-19 06:33:00,31.8,28.1,30.00,ESE,102,15.0,24.0,86,0.00,,,0.00,Wunderground v.1.15,2013-03-19 10:33:00,
2013-03-19 06:38:00,31.9,28.2,30.00,ENE,78,5.0,24.0,86,0.00,,,0.00,Wunderground v.1.15,2013-03-19 10:38:00,
2013-03-19 06:43:00,31.9,28.2,29.99,East,99,11.0,25.0,86,0.00,,,0.00,Wunderground v.1.15,2013-03-19 10:43:00,
2013-03-19 06:48:00,31.9,28.5,29.99,ESE,108,10.0,25.0,87,0.00,,,0.00,Wunderground v.1.15,2013-03-19 10:48:00,
2013-03-19 06:53:00,32.0,28.6,29.99,East,101,3.0,15.0,87,0.00,,,0.00,Wunderground v.1.15,2013-03-19 10:53:00,
2013-03-19 06:58:00,32.1,28.7,29.99,ESE,104,10.0,22.0,87,0.00,,,0.00,Wunderground v.1.15,2013-03-19 10:58:00,
2013-03-19 07:03:00,32.1,28.7,29.98,East,85,13.0,15.0,87,0.00,,,0.00,Wunderground v.1.15,2013-03-19 11:03:00,
2013-03-19 07:08:00,32.1,28.7,29.98,East,98,16.0,17.0,87,0.00,,,0.00,Wunderground v.1.15,2013-03-19 11:08:00,
2013-03-19 07:13:00,32.1,28.7,29.98,ENE,74,10.0,15.0,87,0.00,,,0.00,Wunderground v.1.15,2013-03-19 11:13:00,
2013-03-19 07:18:00,32.1,28.7,29.98,ESE,107,4.0,15.0,87,0.00,,,0.00,Wunderground v.1.15,2013-03-19 11:18:00,
2013-03-19 07:23:00,32.2,28.8,29.98,East,92,9.0,18.0,87,0.00,,,0.00,Wunderground v.1.15,2013-03-19 11:23:00,
2013-03-19 07:28:00,32.3,28.9,29.98,East,79,7.0,18.0,87,0.00,,,0.00,Wunderground v.1.15,2013-03-19 11:28:00,
2013-03-19 07:33:00,32.3,28.9,29.97,East,86,17.0,23.0,87,0.00,,,0.00,Wunderground v.1.15,2013-03-19 11:33:00,
2013-03-19 07:38:00,32.3,28.9,29.97,East,93,11.0,23.0,87,0.00,,,0.00,Wunderground v.1.15,2013-03-19 11:38:00,
2013-03-19 07:43:00,32.4,29.0,29.97,ESE,106,11.0,16.0,87,0.00,,,0.00,Wunderground v.1.15,2013-03-19 11:43:00,
2013-03-19 07:48:00,32.4,29.0,29.97,East,84,18.0,23.0,87,0.00,,,0.00,Wunderground v.1.15,2013-03-19 11:48:00,
2013-03-19 07:53:00,32.4,29.0,29.96,ESE,111,8.0,17.0,87,0.00,,,0.00,Wunderground v.1.15,2013-03-19 11:53:00,
2013-03-19 07:58:00,32.5,29.1,29.96,SE,129,10.0,17.0,87,0.00,,,0.00,Wunderground v.1.15,2013-03-19 11:58:00,
2013-03-19 08:03:00,32.5,29.1,29.95,ESE,106,9.0,15.0,87,0.00,,,0.00,Wunderground v.1.15,2013-03-19 12:03:00,
2013-03-19 08:08:00,32.5,29.1,29.95,East,88,14.0,17.0,87,0.00,,,0.00,Wunderground v.1.15,2013-03-19 12:08:00,
2013-03-19 08:13:00,32.6,29.2,29.94,East,92,7.0,20.0,87,0.00,,,0.00,Wunderground v.1.15,2013-03-19 12:13:00,
2013-03-19 08:18:00,32.6,29.2,29.94,SE,129,7.0,20.0,87,0.00,,,0.00,Wunderground v.1.15,2013-03-19 12:18:00,
2013-03-19 08:23:00,32.6,29.2,29.94,ESE,119,4.0,16.0,87,0.00,,,0.00,Wunderground v.1.15,2013-03-19 12:23:00,
2013-03-19 08:28:00,32.6,29.2,29.94,East,101,10.0,19.0,87,0.00,,,0.00,Wunderground v.1.15,2013-03-19 12:28:00,
2013-03-19 08:33:00,32.6,29.2,29.94,ESE,115,5.0,15.0,87,0.00,,,0.00,Wunderground v.1.15,2013-03-19 12:33:00,
2013-03-19 08:38:00,32.7,29.3,29.93,ENE,72,10.0,19.0,87,0.00,,,0.00,Wunderground v.1.15,2013-03-19 12:38:00,
2013-03-19 08:43:00,32.8,29.4,29.93,East,84,8.0,15.0,87,0.00,,,0.00,Wunderground v.1.15,2013-03-19 12:43:00,
2013-03-19 08:48:00,32.8,29.4,29.93,ESE,113,9.0,19.0,87,0.00,,,0.00,Wunderground v.1.15,2013-03-19 12:48:00,
2013-03-19 08:53:00,32.8,29.4,29.93,East,82,9.0,23.0,87,0.00,,,0.00,Wunderground v.1.15,2013-03-19 12:53:00,
2013-03-19 08:58:00,32.8,29.4,29.93,East,88,17.0,23.0,87,0.00,,,0.00,Wunderground v.1.15,2013-03-19 12:58:00,
2013-03-19 09:03:00,32.9,29.5,29.92,ESE,106,9.0,20.0,87,0.00,,,0.00,Wunderground v.1.15,2013-03-19 13:03:00,
2013-03-19 09:08:00,32.9,29.5,29.92,East,82,9.0,21.0,87,0.00,,,0.00,Wunderground v.1.15,2013-03-19 13:08:00,
2013-03-19 09:13:00,32.9,29.5,29.92,ESE,105,8.0,18.0,87,0.00,,,0.00,Wunderground v.1.15,2013-03-19 13:13:00,
2013-03-19 09:18:00,32.9,29.5,29.91,East,98,15.0,31.0,87,0.00,,,0.00,Wunderground v.1.15,2013-03-19 13:18:00,
2013-03-19 09:23:00,33.0,29.6,29.91,East,86,11.0,16.0,87,0.00,,,0.00,Wunderground v.1.15,2013-03-19 13:23:00,
2013-03-19 09:28:00,33.0,29.6,29.90,ESE,109,14.0,23.0,87,0.00,,,0.00,Wunderground v.1.15,2013-03-19 13:28:00,
2013-03-19 09:33:00,33.1,29.7,29.90,ESE,112,14.0,25.0,87,0.00,,,0.00,Wunderground v.1.15,2013-03-19 13:33:00,
2013-03-19 09:38:00,33.2,29.8,29.90,East,93,13.0,25.0,87,0.00,,,0.00,Wunderground v.1.15,2013-03-19 13:38:00,
2013-03-19 09:43:00,33.1,29.7,29.89,East,101,6.0,21.0,87,0.00,,,0.00,Wunderground v.1.15,2013-03-19 13:43:00,
2013-03-19 09:49:00,33.2,29.8,29.89,SE,125,13.0,22.0,87,0.00,,,0.00,Wunderground v.1.15,2013-03-19 13:49:00,
2013-03-19 09:54:00,33.2,29.8,29.89,ESE,115,9.0,24.0,87,0.00,,,0.00,Wunderground v.1.15,2013-03-19 13:54:00,
2013-03-19 09:59:00,33.2,29.8,29.88,East,82,13.0,24.0,87,0.00,,,0.00,Wunderground v.1.15,2013-03-19 13:59:00,
2013-03-19 10:04:00,33.3,29.8,29.88,East,85,13.0,21.0,87,0.00,,,0.00,Wunderground v.1.15,2013-03-19 14:04:00,
2013-03-19 10:09:00,33.3,29.8,29.88,ESE,104,11.0,22.0,87,0.00,,,0.00,Wunderground v.1.15,2013-03-19 14:09:00,
2013-03-19 10:14:00,33.3,29.8,29.87,East,89,22.0,22.0,87,0.00,,,0.00,Wunderground v.1.15,2013-03-19 14:14:00,
2013-03-19 10:19:00,33.4,29.9,29.87,East,96,10.0,26.0,87,0.00,,,0.00,Wunderground v.1.15,2013-03-19 14:19:00,
2013-03-19 10:24:00,33.4,29.9,29.86,East,96,15.0,22.0,87,0.00,,,0.00,Wunderground v.1.15,2013-03-19 14:24:00,
2013-03-19 10:29:00,33.5,30.0,29.86,ESE,117,8.0,22.0,87,0.00,,,0.00,Wunderground v.1.15,2013-03-19 14:29:00,
2013-03-19 10:34:00,33.5,30.0,29.86,ESE,103,15.0,22.0,87,0.00,,,0.00,Wunderground v.1.15,2013-03-19 14:34:00,
2013-03-19 10:39:00,33.6,30.1,29.86,ESE,103,11.0,22.0,87,0.00,,,0.00,Wunderground v.1.15,2013-03-19 14:39:00,
2013-03-19 10:44:00,33.6,30.1,29.85,East,80,16.0,22.0,87,0.00,,,0.00,Wunderground v.1.15,2013-03-19 14:44:00,
2013-03-19 10:49:00,33.7,30.2,29.85,ENE,71,16.0,25.0,87,0.00,,,0.00,Wunderground v.1.15,2013-03-19 14:49:00,
2013-03-19 10:54:00,33.7,30.2,29.86,ENE,78,13.0,22.0,87,0.00,,,0.00,Wunderground v.1.15,2013-03-19 14:54:00,
2013-03-19 10:59:00,33.8,30.3,29.85,ESE,102,13.0,25.0,87,0.00,,,0.01,Wunderground v.1.15,2013-03-19 14:59:00,
2013-03-19 11:04:00,33.7,30.2,29.85,ENE,64,14.0,21.0,87,0.00,,,0.01,Wunderground v.1.15,2013-03-19 15:04:00,
2013-03-19 11:09:00,33.8,30.3,29.84,ENE,64,18.0,22.0,87,0.00,,,0.01,Wunderground v.1.15,2013-03-19 15:09:00,
2013-03-19 11:14:00,33.8,30.3,29.84,East,96,15.0,20.0,87,0.00,,,0.01,Wunderground v.1.15,2013-03-19 15:14:00,
2013-03-19 11:19:00,33.8,30.3,29.83,ESE,119,19.0,23.0,87,0.00,,,0.01,Wunderground v.1.15,2013-03-19 15:19:00,
2013-03-19 11:24:00,33.8,30.3,29.83,East,79,15.0,28.0,87,0.00,,,0.01,Wunderground v.1.15,2013-03-19 15:24:00,
2013-03-19 11:29:00,33.9,30.4,29.83,East,99,19.0,28.0,87,0.00,,,0.02,Wunderground v.1.15,2013-03-19 15:29:00,
2013-03-19 11:34:00,33.9,30.4,29.82,East,84,14.0,23.0,87,0.00,,,0.02,Wunderground v.1.15,2013-03-19 15:34:00,
2013-03-19 11:39:00,34.0,30.5,29.82,East,99,13.0,23.0,87,0.00,,,0.02,Wunderground v.1.15,2013-03-19 15:39:00,
2013-03-19 11:44:00,34.0,30.5,29.81,East,94,9.0,23.0,87,0.00,,,0.02,Wunderground v.1.15,2013-03-19 15:44:00,
2013-03-19 11:49:00,34.0,30.5,29.81,East,91,28.0,28.0,87,0.00,,,0.03,Wunderground v.1.15,2013-03-19 15:49:00,
2013-03-19 11:54:00,34.1,30.6,29.80,East,86,18.0,28.0,87,0.00,,,0.03,Wunderground v.1.15,2013-03-19 15:54:00,
2013-03-19 11:59:00,34.2,30.7,29.80,East,80,16.0,28.0,87,0.00,,,0.03,Wunderground v.1.15,2013-03-19 15:59:00,
2013-03-19 12:04:00,34.4,30.9,29.79,ESE,108,13.0,27.0,87,0.00,,,0.03,Wunderground v.1.15,2013-03-19 16:04:00,
2013-03-19 12:09:00,34.4,30.9,29.79,East,101,13.0,27.0,87,0.00,,,0.03,Wunderground v.1.15,2013-03-19 16:09:00,
2013-03-19 12:14:00,34.4,30.9,29.79,East,92,9.0,22.0,87,0.00,,,0.03,Wunderground v.1.15,2013-03-19 16:14:00,
2013-03-19 12:19:00,34.4,30.9,29.79,ESE,115,8.0,22.0,87,0.00,,,0.04,Wunderground v.1.15,2013-03-19 16:19:00,
2013-03-19 12:24:00,34.4,30.9,29.78,ENE,62,14.0,23.0,87,0.00,,,0.04,Wunderground v.1.15,2013-03-19 16:24:00,
2013-03-19 12:29:00,34.4,30.9,29.78,East,98,15.0,25.0,87,0.06,,,0.05,Wunderground v.1.15,2013-03-19 16:29:00,
2013-03-19 12:34:00,34.4,30.9,29.77,East,101,13.0,31.0,87,0.06,,,0.05,Wunderground v.1.15,2013-03-19 16:34:00,
2013-03-19 12:39:00,34.4,30.9,29.77,ESE,116,18.0,31.0,87,0.05,,,0.05,Wunderground v.1.15,2013-03-19 16:39:00,
2013-03-19 12:44:00,34.4,30.9,29.76,ENE,78,17.0,23.0,87,0.04,,,0.06,Wunderground v.1.15,2013-03-19 16:44:00,
2013-03-19 12:49:00,34.4,30.9,29.76,ESE,113,19.0,25.0,87,0.04,,,0.06,Wunderground v.1.15,2013-03-19 16:49:00,
2013-03-19 12:54:00,34.4,30.9,29.75,ESE,116,12.0,25.0,87,0.08,,,0.07,Wunderground v.1.15,2013-03-19 16:54:00,
2013-03-19 12:59:00,34.4,30.9,29.75,ENE,68,12.0,31.0,87,0.07,,,0.07,Wunderground v.1.15,2013-03-19 16:59:00,
2013-03-19 13:04:00,34.5,31.0,29.75,ENE,77,24.0,32.0,87,0.04,,,0.07,Wunderground v.1.15,2013-03-19 17:04:00,
2013-03-19 13:09:00,34.6,31.1,29.74,ENE,73,21.0,32.0,87,0.04,,,0.08,Wunderground v.1.15,2013-03-19 17:09:00,
2013-03-19 13:14:00,34.7,31.5,29.74,ENE,78,10.0,26.0,88,0.08,,,0.09,Wunderground v.1.15,2013-03-19 17:14:00,
2013-03-19 13:19:00,34.7,31.5,29.74,East,100,7.0,26.0,88,0.08,,,0.09,Wunderground v.1.15,2013-03-19 17:19:00,
2013-03-19 13:24:00,34.7,31.5,29.74,NE,52,13.0,18.0,88,0.06,,,0.10,Wunderground v.1.15,2013-03-19 17:24:00,
2013-03-19 13:29:00,34.8,31.6,29.73,ESE,123,10.0,26.0,88,0.09,,,0.11,Wunderground v.1.15,2013-03-19 17:29:00,
2013-03-19 13:34:00,34.9,31.7,29.71,East,94,19.0,30.0,88,0.09,,,0.11,Wunderground v.1.15,2013-03-19 17:34:00,
2013-03-19 13:39:00,35.0,31.8,29.70,East,80,11.0,30.0,88,0.07,,,0.12,Wunderground v.1.15,2013-03-19 17:39:00,
2013-03-19 13:44:00,35.1,31.6,29.71,East,82,18.0,28.0,87,0.11,,,0.13,Wunderground v.1.15,2013-03-19 17:44:00,
2013-03-19 13:49:00,35.2,31.7,29.70,ENE,71,14.0,28.0,87,0.09,,,0.13,Wunderground v.1.15,2013-03-19 17:49:00,
2013-03-19 13:55:00,35.2,31.7,29.69,ESE,121,12.0,23.0,87,0.14,,,0.15,Wunderground v.1.15,2013-03-19 17:55:00,
2013-03-19 14:00:00,35.2,31.7,29.68,East,80,13.0,16.0,87,0.10,,,0.15,Wunderground v.1.15,2013-03-19 18:00:00,
2013-03-19 14:05:00,35.2,31.7,29.67,East,101,13.0,30.0,87,0.16,,,0.17,Wunderground v.1.15,2013-03-19 18:05:00,
2013-03-19 14:10:00,35.3,31.8,29.67,ENE,78,12.0,17.0,87,0.12,,,0.18,Wunderground v.1.15,2013-03-19 18:10:00,
2013-03-19 14:15:00,35.2,31.7,29.67,ENE,61,18.0,26.0,87,0.15,,,0.19,Wunderground v.1.15,2013-03-19 18:15:00,
2013-03-19 14:20:00,35.2,31.7,29.67,East,84,24.0,24.0,87,0.20,,,0.21,Wunderground v.1.15,2013-03-19 18:20:00,
2013-03-19 14:25:00,35.2,31.7,29.67,ENE,75,17.0,24.0,87,0.12,,,0.22,Wunderground v.1.15,2013-03-19 18:25:00,
2013-03-19 14:30:00,35.2,31.7,29.67,ESE,113,12.0,16.0,87,0.20,,,0.23,Wunderground v.1.15,2013-03-19 18:30:00,
2013-03-19 14:35:00,35.2,31.7,29.66,East,98,9.0,25.0,87,0.23,,,0.25,Wunderground v.1.15,2013-03-19 18:35:00,
2013-03-19 14:40:00,35.2,31.7,29.66,ENE,60,12.0,15.0,87,0.13,,,0.26,Wunderground v.1.15,2013-03-19 18:40:00,
2013-03-19 14:45:00,35.3,31.8,29.66,East,84,13.0,19.0,87,0.15,,,0.28,Wunderground v.1.15,2013-03-19 18:45:00,
2013-03-19 14:50:00,35.3,31.8,29.66,East,84,16.0,16.0,87,0.20,,,0.29,Wunderground v.1.15,2013-03-19 18:50:00,
2013-03-19 14:55:00,35.3,31.8,29.67,ESE,103,4.0,22.0,87,0.24,,,0.31,Wunderground v.1.15,2013-03-19 18:55:00,
2013-03-19 15:00:00,35.3,32.1,29.71,NW,325,6.0,9.0,88,0.10,,,0.31,Wunderground v.1.15,2013-03-19 19:00:00,
2013-03-19 15:05:00,35.3,31.8,29.73,NNW,346,7.0,11.0,87,0.20,,,0.33,Wunderground v.1.15,2013-03-19 19:05:00,
2013-03-19 15:10:00,35.3,31.8,29.72,North,5,8.0,9.0,87,0.10,,,0.34,Wunderground v.1.15,2013-03-19 19:10:00,
2013-03-19 15:15:00,35.2,31.7,29.70,NE,49,8.0,12.0,87,0.16,,,0.35,Wunderground v.1.15,2013-03-19 19:15:00,
2013-03-19 15:20:00,35.1,31.6,29.69,NE,40,11.0,11.0,87,0.22,,,0.37,Wunderground v.1.15,2013-03-19 19:20:00,
2013-03-19 15:25:00,34.8,31.3,29.69,North,360,8.0,12.0,87,0.10,,,0.37,Wunderground v.1.15,2013-03-19 19:25:00,
2013-03-19 15:30:00,34.4,30.9,29.69,NNE,30,0.0,6.0,87,0.09,,,0.38,Wunderground v.1.15,2013-03-19 19:30:00,
2013-03-19 15:35:00,34.1,30.6,29.68,North,360,7.0,12.0,87,0.12,,,0.39,Wunderground v.1.15,2013-03-19 19:35:00,
2013-03-19 15:40:00,33.7,30.2,29.68,NNE,15,8.0,9.0,87,0.06,,,0.39,Wunderground v.1.15,2013-03-19 19:40:00,
2013-03-19 15:45:00,33.4,29.9,29.68,North,350,6.0,14.0,87,0.05,,,0.40,Wunderground v.1.15,2013-03-19 19:45:00,
2013-03-19 15:50:00,33.3,29.8,29.68,North,355,6.0,9.0,87,0.09,,,0.40,Wunderground v.1.15,2013-03-19 19:50:00,
2013-03-19 15:55:00,33.3,29.8,29.69,NNW,334,7.0,10.0,87,0.09,,,0.41,Wunderground v.1.15,2013-03-19 19:55:00,
2013-03-19 16:00:00,33.3,29.8,29.69,NNE,19,6.0,11.0,87,0.06,,,0.41,Wunderground v.1.15,2013-03-19 20:00:00,
2013-03-19 16:05:00,33.3,29.8,29.69,North,355,6.0,12.0,87,0.04,,,0.41,Wunderground v.1.15,2013-03-19 20:05:00,
2013-03-19 16:10:00,33.3,29.8,29.65,NNE,17,16.0,18.0,87,0.04,,,0.42,Wunderground v.1.15,2013-03-19 20:10:00,
2013-03-19 16:15:00,33.3,29.8,29.61,ENE,60,12.0,22.0,87,0.08,,,0.43,Wunderground v.1.15,2013-03-19 20:15:00,
2013-03-19 16:20:00,33.3,29.8,29.60,ENE,70,8.0,15.0,87,0.08,,,0.43,Wunderground v.1.15,2013-03-19 20:20:00,
2013-03-19 16:25:00,33.4,29.9,29.60,ENE,69,16.0,22.0,87,0.05,,,0.43,Wunderground v.1.15,2013-03-19 20:25:00,
2013-03-19 16:30:00,33.5,30.0,29.60,NE,35,6.0,12.0,87,0.04,,,0.43,Wunderground v.1.15,2013-03-19 20:30:00,
2013-03-19 16:35:00,33.7,30.2,29.60,East,95,10.0,24.0,87,0.00,,,0.44,Wunderground v.1.15,2013-03-19 20:35:00,
2013-03-19 16:40:00,33.8,30.3,29.60,ENE,74,11.0,11.0,87,0.11,,,0.45,Wunderground v.1.15,2013-03-19 20:40:00,
2013-03-19 16:45:00,33.8,30.3,29.61,NNE,33,10.0,19.0,87,0.07,,,0.45,Wunderground v.1.15,2013-03-19 20:45:00,
2013-03-19 16:50:00,33.9,30.4,29.60,North,360,12.0,12.0,87,0.04,,,0.45,Wunderground v.1.15,2013-03-19 20:50:00,
2013-03-19 16:55:00,34.0,30.5,29.60,NE,46,5.0,26.0,87,0.04,,,0.46,Wunderground v.1.15,2013-03-19 20:55:00,
2013-03-19 17:00:00,34.1,30.9,29.60,NE,35,10.0,21.0,88,0.12,,,0.47,Wunderground v.1.15,2013-03-19 21:00:00,
2013-03-19 17:05:00,34.2,31.0,29.59,NE,37,9.0,25.0,88,0.06,,,0.47,Wunderground v.1.15,2013-03-19 21:05:00,
2013-03-19 17:10:00,34.2,31.0,29.58,East,80,17.0,19.0,88,0.04,,,0.47,Wunderground v.1.15,2013-03-19 21:10:00,
2013-03-19 17:15:00,34.2,31.0,29.58,NNE,26,15.0,20.0,88,0.04,,,0.48,Wunderground v.1.15,2013-03-19 21:15:00,
2013-03-19 17:20:00,34.2,31.0,29.57,East,82,9.0,16.0,88,0.10,,,0.49,Wunderground v.1.15,2013-03-19 21:20:00,
2013-03-19 17:25:00,34.1,30.6,29.57,NE,48,11.0,22.0,87,0.08,,,0.49,Wunderground v.1.15,2013-03-19 21:25:00,
2013-03-19 17:30:00,34.1,30.6,29.57,ENE,67,8.0,12.0,87,0.05,,,0.49,Wunderground v.1.15,2013-03-19 21:30:00,
2013-03-19 17:35:00,34.1,30.6,29.58,ENE,59,3.0,19.0,87,0.00,,,0.49,Wunderground v.1.15,2013-03-19 21:35:00,
2013-03-19 17:40:00,34.1,30.6,29.58,NE,40,2.0,15.0,87,0.00,,,0.50,Wunderground v.1.15,2013-03-19 21:40:00,
2013-03-19 17:45:00,34.1,30.6,29.58,NE,49,4.0,20.0,87,0.07,,,0.51,Wunderground v.1.15,2013-03-19 21:45:00,
2013-03-19 17:51:00,34.1,30.6,29.58,NE,38,4.0,10.0,87,0.07,,,0.51,Wunderground v.1.15,2013-03-19 21:51:00,
2013-03-19 17:56:00,34.1,30.6,29.59,NNE,23,12.0,20.0,87,0.05,,,0.51,Wunderground v.1.15,2013-03-19 21:56:00,
2013-03-19 18:01:00,34.0,30.5,29.58,NNE,28,14.0,17.0,87,0.04,,,0.51,Wunderground v.1.15,2013-03-19 22:01:00,
2013-03-19 18:06:00,34.0,30.5,29.58,NNE,22,12.0,18.0,87,0.00,,,0.51,Wunderground v.1.15,2013-03-19 22:06:00,
2013-03-19 18:12:00,34.0,30.5,29.58,NE,45,12.0,13.0,87,0.00,,,0.52,Wunderground v.1.15,2013-03-19 22:12:00,
2013-03-19 18:17:00,34.0,30.5,29.58,NE,52,8.0,14.0,87,0.00,,,0.52,Wunderground v.1.15,2013-03-19 22:17:00,
2013-03-19 18:22:00,34.0,30.5,29.58,NE,44,11.0,17.0,87,0.05,,,0.53,Wunderground v.1.15,2013-03-19 22:22:00,
2013-03-19 18:27:00,33.9,30.4,29.58,NE,36,7.0,21.0,87,0.05,,,0.53,Wunderground v.1.15,2013-03-19 22:27:00,
2013-03-19 18:32:00,33.9,30.4,29.58,NNE,19,11.0,17.0,87,0.05,,,0.53,Wunderground v.1.15,2013-03-19 22:32:00,
2013-03-19 18:37:00,33.9,30.4,29.58,NNW,348,7.0,18.0,87,0.00,,,0.53,Wunderground v.1.15,2013-03-19 22:37:00,
2013-03-19 18:42:00,33.9,30.4,29.59,NNE,17,8.0,14.0,87,0.00,,,0.53,Wunderground v.1.15,2013-03-19 22:42:00,
2013-03-19 18:47:00,33.9,30.4,29.59,NE,42,7.0,16.0,87,0.00,,,0.53,Wunderground v.1.15,2013-03-19 22:47:00,
2013-03-19 18:52:00,33.9,30.4,29.58,NNE,29,10.0,17.0,87,0.00,,,0.54,Wunderground v.1.15,2013-03-19 22:52:00,
2013-03-19 18:57:00,33.9,30.4,29.58,NNE,22,9.0,17.0,87,0.00,,,0.54,Wunderground v.1.15,2013-03-19 22:57:00,
2013-03-19 19:02:00,33.8,30.3,29.58,North,9,8.0,16.0,87,0.06,,,0.55,Wunderground v.1.15,2013-03-19 23:02:00,
2013-03-19 19:07:00,33.8,30.3,29.58,North,360,7.0,16.0,87,0.06,,,0.55,Wunderground v.1.15,2013-03-19 23:07:00,
2013-03-19 19:13:00,33.8,30.3,29.58,NE,46,2.0,11.0,87,0.05,,,0.55,Wunderground v.1.15,2013-03-19 23:13:00,
2013-03-19 19:18:00,33.8,30.3,29.59,NNE,25,7.0,13.0,87,0.00,,,0.55,Wunderground v.1.15,2013-03-19 23:18:00,
2013-03-19 19:23:00,33.7,30.2,29.58,NNE,26,8.0,16.0,87,0.00,,,0.55,Wunderground v.1.15,2013-03-19 23:23:00,
2013-03-19 19:28:00,33.7,30.2,29.58,NE,34,5.0,20.0,87,0.00,,,0.55,Wunderground v.1.15,2013-03-19 23:28:00,
2013-03-19 19:33:00,33.7,30.2,29.58,NNE,25,10.0,15.0,87,0.00,,,0.55,Wunderground v.1.15,2013-03-19 23:33:00,
2013-03-19 19:38:00,33.7,30.2,29.58,NNE,17,5.0,15.0,87,0.00,,,0.56,Wunderground v.1.15,2013-03-19 23:38:00,
2013-03-19 19:43:00,33.7,30.2,29.58,NNE,21,13.0,15.0,87,0.00,,,0.56,Wunderground v.1.15,2013-03-19 23:43:00,
2013-03-19 19:48:00,33.7,30.2,29.58,NNW,333,6.0,15.0,87,0.00,,,0.56,Wunderground v.1.15,2013-03-19 23:48:00,
2013-03-19 19:53:00,33.6,30.1,29.58,NNE,24,5.0,15.0,87,0.00,,,0.56,Wunderground v.1.15,2013-03-19 23:53:00,
2013-03-19 19:58:00,33.6,30.1,29.58,North,5,9.0,15.0,87,0.00,,,0.57,Wunderground v.1.15,2013-03-19 23:58:00,
2013-03-19 20:03:00,33.6,30.1,29.58,North,9,9.0,13.0,87,0.00,,,0.57,Wunderground v.1.15,2013-03-20 00:03:00,
2013-03-19 20:08:00,33.6,30.1,29.59,North,360,11.0,13.0,87,0.00,,,0.57,Wunderground v.1.15,2013-03-20 00:08:00,
2013-03-19 20:13:00,33.5,30.0,29.59,North,350,7.0,8.0,87,0.00,,,0.57,Wunderground v.1.15,2013-03-20 00:13:00,
2013-03-19 20:18:00,33.5,30.0,29.58,NNE,23,8.0,14.0,87,0.00,,,0.57,Wunderground v.1.15,2013-03-20 00:18:00,
2013-03-19 20:23:00,33.5,30.0,29.58,NNE,16,8.0,14.0,87,0.00,,,0.57,Wunderground v.1.15,2013-03-20 00:23:00,
2013-03-19 20:28:00,33.5,30.0,29.58,NNW,336,11.0,14.0,87,0.00,,,0.57,Wunderground v.1.15,2013-03-20 00:28:00,
2013-03-19 20:33:00,33.4,29.9,29.58,NNE,24,3.0,17.0,87,0.00,,,0.57,Wunderground v.1.15,2013-03-20 00:33:00,
2013-03-19 20:38:00,33.4,29.9,29.58,North,360,5.0,17.0,87,0.00,,,0.57,Wunderground v.1.15,2013-03-20 00:38:00,
2013-03-19 20:43:00,33.4,29.9,29.59,NNW,336,7.0,10.0,87,0.00,,,0.57,Wunderground v.1.15,2013-03-20 00:43:00,
2013-03-19 20:48:00,33.3,29.8,29.59,NNW,347,5.0,11.0,87,0.00,,,0.57,Wunderground v.1.15,2013-03-20 00:48:00,
2013-03-19 20:53:00,33.2,29.8,29.59,NNW,342,9.0,11.0,87,0.00,,,0.57,Wunderground v.1.15,2013-03-20 00:53:00,
2013-03-19 20:58:00,33.1,29.7,29.60,WNW,299,3.0,11.0,87,0.00,,,0.58,Wunderground v.1.15,2013-03-20 00:58:00,
2013-03-19 21:03:00,33.0,29.6,29.61,NW,315,6.0,13.0,87,0.00,,,0.58,Wunderground v.1.15,2013-03-20 01:03:00,
2013-03-19 21:08:00,32.9,29.5,29.62,WNW,298,4.0,13.0,87,0.00,,,0.58,Wunderground v.1.15,2013-03-20 01:08:00,
2013-03-19 21:13:00,32.8,29.4,29.63,West,272,5.0,9.0,87,0.00,,,0.58,Wunderground v.1.15,2013-03-20 01:13:00,
2013-03-19 21:18:00,32.8,29.4,29.63,NW,313,4.0,11.0,87,0.00,,,0.58,Wunderground v.1.15,2013-03-20 01:18:00,
2013-03-19 21:23:00,32.7,29.3,29.63,NW,321,9.0,12.0,87,0.00,,,0.58,Wunderground v.1.15,2013-03-20 01:23:00,
2013-03-19 21:28:00,32.6,29.2,29.63,NW,307,3.0,12.0,87,0.00,,,0.58,Wunderground v.1.15,2013-03-20 01:28:00,
2013-03-19 21:33:00,32.6,29.2,29.63,NW,321,4.0,7.0,87,0.00,,,0.58,Wunderground v.1.15,2013-03-20 01:33:00,
2013-03-19 21:38:00,32.6,29.2,29.63,North,350,3.0,9.0,87,0.00,,,0.59,Wunderground v.1.15,2013-03-20 01:38:00,
2013-03-19 21:43:00,32.5,29.1,29.63,NNW,348,4.0,9.0,87,0.00,,,0.59,Wunderground v.1.15,2013-03-20 01:43:00,
2013-03-19 21:48:00,32.5,29.1,29.63,NNW,327,7.0,10.0,87,0.00,,,0.59,Wunderground v.1.15,2013-03-20 01:48:00,
2013-03-19 21:53:00,32.3,28.9,29.64,NW,325,4.0,11.0,87,0.00,,,0.59,Wunderground v.1.15,2013-03-20 01:53:00,
2013-03-19 21:58:00,32.1,28.7,29.64,NNW,333,13.0,13.0,87,0.00,,,0.59,Wunderground v.1.15,2013-03-20 01:58:00,
2013-03-19 22:03:00,31.8,28.4,29.65,NNW,331,10.0,14.0,87,0.00,,,0.59,Wunderground v.1.15,2013-03-20 02:03:00,
2013-03-19 22:08:00,31.6,28.2,29.65,NNW,336,12.0,14.0,87,0.00,,,0.59,Wunderground v.1.15,2013-03-20 02:08:00,
2013-03-19 22:13:00,31.3,27.9,29.65,NNW,341,12.0,14.0,87,0.00,,,0.59,Wunderground v.1.15,2013-03-20 02:13:00,
2013-03-19 22:18:00,31.1,27.7,29.65,NNW,330,6.0,17.0,87,0.00,,,0.59,Wunderground v.1.15,2013-03-20 02:18:00,
2013-03-19 22:23:00,30.9,27.5,29.66,WNW,301,9.0,12.0,87,0.00,,,0.59,Wunderground v.1.15,2013-03-20 02:23:00,
2013-03-19 22:28:00,30.7,27.0,29.65,NNW,342,9.0,12.0,86,0.00,,,0.59,Wunderground v.1.15,2013-03-20 02:28:00,
2013-03-19 22:33:00,30.3,26.6,29.65,NNW,348,17.0,18.0,86,0.00,,,0.59,Wunderground v.1.15,2013-03-20 02:33:00,
2013-03-19 22:38:00,30.1,26.4,29.65,North,355,8.0,18.0,86,0.00,,,0.59,Wunderground v.1.15,2013-03-20 02:38:00,
2013-03-19 22:43:00,29.9,26.2,29.65,NNW,327,8.0,12.0,86,0.00,,,0.59,Wunderground v.1.15,2013-03-20 02:43:00,
2013-03-19 22:48:00,29.7,26.0,29.65,NW,313,7.0,18.0,86,0.00,,,0.59,Wunderground v.1.15,2013-03-20 02:48:00,
2013-03-19 22:53:00,29.5,25.8,29.65,NNW,344,6.0,15.0,86,0.00,,,0.59,Wunderground v.1.15,2013-03-20 02:53:00,
2013-03-19 22:58:00,29.3,25.6,29.65,NNW,344,8.0,15.0,86,0.00,,,0.59,Wunderground v.1.15,2013-03-20 02:58:00,
2013-03-19 23:03:00,29.3,25.6,29.65,WNW,301,4.0,10.0,86,0.00,,,0.59,Wunderground v.1.15,2013-03-20 03:03:00,
2013-03-19 23:08:00,29.3,25.6,29.65,NW,307,9.0,10.0,86,0.00,,,0.59,Wunderground v.1.15,2013-03-20 03:08:00,
2013-03-19 23:14:00,29.3,25.6,29.65,NNW,327,5.0,9.0,86,0.00,,,0.59,Wunderground v.1.15,2013-03-20 03:14:00,
2013-03-19 23:19:00,29.3,25.6,29.65,WNW,297,13.0,13.0,86,0.00,,,0.59,Wunderground v.1.15,2013-03-20 03:19:00,
2013-03-19 23:24:00,29.0,25.3,29.65,WNW,301,8.0,22.0,86,0.00,,,0.59,Wunderground v.1.15,2013-03-20 03:24:00,
2013-03-19 23:29:00,28.8,25.1,29.65,NW,321,8.0,22.0,86,0.00,,,0.59,Wunderground v.1.15,2013-03-20 03:29:00,
2013-03-19 23:34:00,28.6,24.9,29.65,NW,304,2.0,11.0,86,0.00,,,0.59,Wunderground v.1.15,2013-03-20 03:34:00,
2013-03-19 23:39:00,28.5,24.8,29.65,North,360,9.0,12.0,86,0.00,,,0.59,Wunderground v.1.15,2013-03-20 03:39:00,
2013-03-19 23:44:00,28.4,24.7,29.65,NNW,333,6.0,11.0,86,0.00,,,0.59,Wunderground v.1.15,2013-03-20 03:44:00,
2013-03-19 23:49:00,28.2,24.3,29.65,North,5,5.0,16.0,85,0.00,,,0.59,Wunderground v.1.15,2013-03-20 03:49:00,
2013-03-19 23:54:00,28.1,24.2,29.65,NNW,333,13.0,16.0,85,0.00,,,0.59,Wunderground v.1.15,2013-03-20 03:54:00,
2013-03-19 23:59:00,27.9,24.0,29.66,NW,325,4.0,16.0,85,0.00,,,0.59,Wunderground v.1.15,2013-03-20 03:59:00,